Rugby, ND

7:17 AM CST on December 16, 2019 (GMT -0600)
Rugby Municipal

Weather History for KRUG - October, 2019

Change the Weather History Date:

Friday, October 25, 2019

  Actual Average Record
Temperature  
Mean Temperature 46 °F -  
Max Temperature 62 °F 53 °F 78 °F (1992)
Min Temperature 30 °F 30 °F 8 °F (1957)
Degree Days  
Heating Degree Days 19    
Moisture  
Dew Point 34 °F    
Average Humidity 70    
Maximum Humidity 93    
Minimum Humidity 39    
Precipitation  
Precipitation 0.00 in - - ()
Sea Level Pressure  
Sea Level Pressure 29.81 in    
Wind  
Wind Speed 12 mph (SSW)    
Max Wind Speed 24 mph    
Max Gust Speed 32 mph    
Visibility 10 miles    
Events      
Averages and records for this station are not official NWS values.
T = Trace of Precipitation, MM = Missing Value Source: NWS Daily Summary

Daily Weather History Graph

Daily Weather History Graph

Search for Another Location

Airport or City:

Astronomy

Oct. 25, 2019 Rise Set
Actual Time 8:14 AM CDT 6:32 PM CDT
Civil Twilight 7:42 AM CDT 7:04 PM CDT
Nautical Twilight 7:06 AM CDT 7:41 PM CDT
Astronomical Twilight 6:29 AM CDT 8:17 PM CDT
Moon 4:37 AM CDT (10/25) 5:54 PM CDT (10/25)
Length of Visible Light 11h 22m
Length of Day
10h 17m
Waning Crescent, 9% of the Moon is Illuminated
Oct 25
Waning Crescent
Oct 27
New
Nov 4
First Quarter
Nov 12
Full
Nov 19
Last Quarter

Hourly Weather History & Observations

Time (CDT) Temp. Windchill Dew Point Humidity Pressure Visibility Wind Dir Wind Speed Gust Speed Precip Events Conditions
12:15 AM 30.2 °F 22.6 °F 26.6 °F 86% 30.08 in 10.0 mi South 8.1 mph - N/A   Mostly Cloudy
12:35 AM 30.2 °F 22.6 °F 26.6 °F 86% 30.07 in 10.0 mi South 8.1 mph - N/A   Partly Cloudy
12:55 AM 30.2 °F 21.9 °F 26.6 °F 86% 30.07 in 10.0 mi South 9.2 mph - N/A   Unknown
1:15 AM 30.2 °F 21.3 °F 28.4 °F 93% 30.06 in 10.0 mi SSW 10.4 mph - N/A   Unknown
1:35 AM 30.2 °F 21.3 °F 28.4 °F 93% 30.05 in 10.0 mi SSW 10.4 mph - N/A   Unknown
1:55 AM 32.0 °F 22.5 °F 28.4 °F 87% 30.04 in 10.0 mi SSW 12.7 mph - N/A   Unknown
2:15 AM 32.0 °F 22.1 °F 28.4 °F 87% 30.04 in 10.0 mi SSW 13.8 mph - N/A   Overcast
2:35 AM 32.0 °F 22.1 °F 28.4 °F 87% 30.02 in 10.0 mi SSW 13.8 mph - N/A   Scattered Clouds
2:55 AM 32.0 °F 21.6 °F 28.4 °F 87% 30.01 in 10.0 mi SSW 15.0 mph - N/A   Unknown
3:15 AM 32.0 °F 22.1 °F 28.4 °F 87% 30.00 in 10.0 mi SSW 13.8 mph - N/A   Unknown
3:35 AM 32.0 °F 21.6 °F 28.4 °F 87% 30.00 in 10.0 mi SSW 15.0 mph - N/A   Unknown
3:55 AM 32.0 °F 23.0 °F 26.6 °F 80% 29.98 in 10.0 mi SSW 11.5 mph - N/A   Unknown
4:15 AM 32.0 °F 23.6 °F 26.6 °F 80% 29.97 in 10.0 mi South 10.4 mph 17.3 mph N/A   Clear
4:55 AM 33.8 °F 23.5 °F 26.6 °F 75% 29.95 in 10.0 mi SSW 16.1 mph - N/A   Clear
5:15 AM 33.8 °F 24.3 °F 26.6 °F 75% 29.95 in 10.0 mi SSW 13.8 mph 19.6 mph N/A   Clear
5:35 AM 32.0 °F 22.5 °F 26.6 °F 80% 29.95 in 10.0 mi SSW 12.7 mph - N/A   Clear
5:55 AM 33.8 °F 23.9 °F 26.6 °F 75% 29.95 in 10.0 mi SSW 15.0 mph - N/A   Clear
6:15 AM 33.8 °F 24.3 °F 28.4 °F 81% 29.94 in 10.0 mi SSW 13.8 mph - N/A   Clear
6:35 AM 33.8 °F 25.8 °F 28.4 °F 81% 29.94 in 10.0 mi SW 10.4 mph - N/A   Clear
6:55 AM 33.8 °F 25.8 °F 28.4 °F 81% 29.94 in 10.0 mi SW 10.4 mph - N/A   Clear
7:15 AM 32.0 °F 24.8 °F 28.4 °F 87% 29.94 in 10.0 mi SW 8.1 mph - N/A   Clear
7:35 AM 32.0 °F 23.6 °F 28.4 °F 87% 29.93 in 10.0 mi SSW 10.4 mph - N/A   Clear
7:55 AM 32.0 °F 25.6 °F 26.6 °F 80% 29.93 in 10.0 mi SSW 6.9 mph - N/A   Clear
8:15 AM 32.0 °F 25.6 °F 28.4 °F 87% 29.93 in 10.0 mi SW 6.9 mph - N/A   Clear
8:35 AM 32.0 °F 24.8 °F 28.4 °F 87% 29.93 in 10.0 mi SW 8.1 mph - N/A   Partly Cloudy
8:55 AM 33.8 °F 27.0 °F 28.4 °F 81% 29.92 in 10.0 mi SW 8.1 mph - N/A   Scattered Clouds
9:15 AM 33.8 °F 26.4 °F 28.4 °F 81% 29.92 in 10.0 mi SW 9.2 mph - N/A   Partly Cloudy
9:35 AM 35.6 °F 28.6 °F 30.2 °F 81% 29.92 in 10.0 mi SW 9.2 mph - N/A   Clear
9:55 AM 37.4 °F 30.8 °F 30.2 °F 75% 29.91 in 10.0 mi SW 9.2 mph - N/A   Clear
10:15 AM 41.0 °F 35.8 °F 32.0 °F 70% 29.91 in 10.0 mi SW 8.1 mph - N/A   Clear
10:35 AM 42.8 °F 37.0 °F 32.0 °F 66% 29.91 in 10.0 mi SW 10.4 mph - N/A   Clear
10:55 AM 44.6 °F 38.4 °F 32.0 °F 61% 29.90 in 10.0 mi SW 12.7 mph - N/A   Clear
1:35 PM 55.4 °F - 37.4 °F 51% 29.82 in 10.0 mi SSW 15.0 mph 21.9 mph N/A   Clear
1:55 PM 57.2 °F - 37.4 °F 48% 29.81 in 10.0 mi SSW 16.1 mph - N/A   Clear
2:15 PM 59.0 °F - 39.2 °F 48% 29.78 in 10.0 mi SSW 19.6 mph - N/A   Clear
2:35 PM 60.8 °F - 39.2 °F 45% 29.77 in 10.0 mi SW 19.6 mph - N/A   Clear
2:55 PM 60.8 °F - 37.4 °F 42% 29.76 in 10.0 mi SW 24.2 mph 32.2 mph N/A   Clear
3:15 PM 60.8 °F - 37.4 °F 42% 29.75 in 10.0 mi SW 21.9 mph 31.1 mph N/A   Clear
3:35 PM 60.8 °F - 37.4 °F 42% 29.74 in 10.0 mi SSW 19.6 mph 28.8 mph N/A   Clear
3:55 PM 60.8 °F - 37.4 °F 42% 29.73 in 10.0 mi SSW 20.7 mph 29.9 mph N/A   Clear
4:15 PM 62.6 °F - 37.4 °F 39% 29.72 in 10.0 mi SSW 19.6 mph - N/A   Clear
4:35 PM 62.6 °F - 39.2 °F 42% 29.71 in 10.0 mi SSW 19.6 mph - N/A   Clear
4:55 PM 60.8 °F - 39.2 °F 45% 29.71 in 10.0 mi SW 16.1 mph 25.3 mph N/A   Clear
5:15 PM 59.0 °F - 39.2 °F 48% 29.70 in 10.0 mi SW 18.4 mph - N/A   Clear
5:35 PM 59.0 °F - 39.2 °F 48% 29.69 in 10.0 mi SW 13.8 mph - N/A   Clear
5:55 PM 57.2 °F - 39.2 °F 51% 29.68 in 9.0 mi SSW 12.7 mph - N/A   Clear
6:15 PM 57.2 °F - 39.2 °F 51% 29.67 in 10.0 mi SSW 13.8 mph - N/A   Clear
6:35 PM 55.4 °F - 39.2 °F 54% 29.66 in 9.0 mi SSW 12.7 mph - N/A   Clear
6:55 PM 51.8 °F - 39.2 °F 62% 29.65 in 8.0 mi South 8.1 mph 13.8 mph N/A   Clear
7:15 PM 50.0 °F - 39.2 °F 66% 29.64 in 9.0 mi South 6.9 mph - N/A   Clear
7:35 PM 50.0 °F - 39.2 °F 66% 29.63 in 9.0 mi South 9.2 mph - N/A   Clear
7:55 PM 50.0 °F - 39.2 °F 66% 29.62 in 10.0 mi South 12.7 mph - N/A   Clear
8:15 PM 50.0 °F - 41.0 °F 71% 29.61 in 10.0 mi South 13.8 mph - N/A   Clear
8:35 PM 50.0 °F - 41.0 °F 71% 29.61 in 10.0 mi South 12.7 mph - N/A   Clear
8:55 PM 50.0 °F - 41.0 °F 71% 29.60 in 10.0 mi South 12.7 mph - N/A   Clear
9:15 PM 48.2 °F - 41.0 °F 76% 29.59 in 10.0 mi South 13.8 mph 19.6 mph N/A   Clear
9:35 PM 48.2 °F - 41.0 °F 76% 29.58 in 10.0 mi South 13.8 mph - N/A   Clear
9:55 PM 48.2 °F - 41.0 °F 76% 29.57 in 10.0 mi South 15.0 mph 20.7 mph N/A   Unknown
10:15 PM 48.2 °F - 39.2 °F 71% 29.55 in 10.0 mi South 15.0 mph - N/A   Unknown
10:35 PM 48.2 °F - 39.2 °F 71% 29.54 in 10.0 mi South 15.0 mph 20.7 mph N/A   Unknown
10:55 PM 48.2 °F - 39.2 °F 71% 29.53 in 10.0 mi South 13.8 mph - N/A   Unknown
11:15 PM 50.0 °F - 39.2 °F 66% 29.52 in 10.0 mi South 12.7 mph 19.6 mph N/A   Unknown
11:35 PM 51.8 °F - 39.2 °F 62% 29.50 in 10.0 mi SSW 19.6 mph 25.3 mph N/A   Overcast
11:55 PM 51.8 °F - 39.2 °F 62% 29.50 in 10.0 mi SSW 19.6 mph 26.5 mph N/A   Overcast